CYGFM08 (41888 NORAD) Tracking and Keplerian Element Data

This shows tracking and keplerian element data for the satellite.

Feedback or suggestion? Click here.




ElementValue
Catalog41888
NameCYGFM08
Epoch Orbit10670
Epoch Day323.23265997
Epoch Year2018
RAAN36.6951
Inclination34.9514
Eccentricity0.0016226
Argument of Perigee305.0603
Mean Anonmoly54.8586
Mean Motion15.14476411
Decay Rate3.98E-06
L11 41888U 16078E 18323.23265997 .00000398 00000-0 22851-4 0 9993
L22 41888 34.9514 36.6951 0016226 305.0603 54.8586 15.14476411106705

Live tracking and technical data element details for CYGFM08 (NORAD 41888). CYGFM08 can be tracked NOW for your location showing map with azimuth and elevation plus other details from your city location.

Track the satellite on the map from your city or location and see movement details for azimuth, elevation, latitude, longitude, range, height, and movement on the map or in text.







IsCatalogInMostPopularTable: catalog: 41888, numindb: 142
Update: records affected: 1



GetName: 41888 CYGFM08

Hit Count: updated at: Wed, 21 Nov 2018 06:51:00 GMT